Location: Newark
(3.0500°N, 36.0167°E)
Time: 15:39:49
(UTC+00:00)

A-11 Canister half - Pass Details

Date: 31 August 2019
Orbit: 1527 x 1682 km, 47.3° (Epoch: 22 September)

Event Time Altitude Azimuth Distance (km) Brightness Sun altitude
Rises 03:09:08 0° 205° (SSW) 4,680 11.2 -6.3°
Reaches altitude 10° 03:12:23 10° 198° (SSW) 3,705 10.8 -5.5°
Maximum altitude 03:21:06 43° 129° (SE) 2,064 10.2 -3.3°
Drops below altitude 10° 03:30:00 10° 61° (ENE) 3,793 12.6 -1.1°
Sets 03:33:20 0° 54° (NE) 4,799 12.9 -0.3°
